Voltar ao catálogo

CZ-6A DEB

AtivoPO
NORAD 63394·DEBRIS·🇨🇳 China

Lançado Aug 6, 2024 de Taiyuan Satellite Launch Center

Loading…

Próximas Passagens (próximas 24 horas)

TLE

AtualizadoSource: Space-Track

Época: Sep 14, 2026, 10:49 UTC

1 63394U 24140ADR 26257.45075697  .00001057  00000-0  52005-3 0  9999
2 63394  88.9412 260.5165 0071181 282.5631  76.7601 14.15649494103300

Acompanhe CZ-6A DEB em tempo real com AllMySat

Download on the App Store